Location: Wells
(51.2093°N, 2.6446°W)
Time: 08:38:33
(UTC+01:00)

SO-50 - Pass Details

Date: 16 March 2026
Orbit: 567 x 673 km, 64.6° (Epoch: 17 April)

Event Time Altitude Azimuth Distance (km) Brightness Sun altitude
Rises 21:56:27 0° 297° (WNW) 3,005 ? -31.9°
Reaches altitude 10° 21:59:34 10° 319° (NW) 2,104 ? -32.2°
Maximum altitude 22:02:38 17° 358° (N) 1,713 ? -32.6°
Enters shadow 22:04:06 15° 20° (NNE) 1,814 ? -32.7°
